IQ7ET-13 Weather Reports


Display with metric or nautical units.
time (UTC)temp
F
wind
direction
speed
MPH
gust
MPH
rain 1hr
in
rain 24hr
in
rain mn
in
humidity
%
barometer
mb
20260503211545 59 186 0.0 3.0 0.00 0.00 0.00 62 1021.0
20260503210025 59 200 0.0 4.0 0.00 0.00 0.00 64 1020.9
20260503204505 59 188 1.0 6.0 0.00 0.00 0.00 66 1020.9
20260503203052 59 191 1.0 5.0 0.00 0.00 0.00 66 1021.1
20260503201521 59 162 3.0 8.0 0.00 0.00 0.00 68 1020.9
20260503200057 59 195 1.0 7.0 0.00 0.00 0.00 68 1020.9
20260503194535 59 250 3.0 8.0 0.00 0.00 0.00 65 1020.9
20260503193011 60 152 2.0 7.0 0.00 0.00 0.00 64 1020.8
20260503191553 59 178 3.0 8.0 0.00 0.00 0.00 63 1020.8
20260503190030 60 108 5.0 9.0 0.00 0.00 0.00 61 1020.6
20260503184503 61 219 2.0 6.0 0.00 0.00 0.00 53 1020.5
20260503183041 62 349 3.0 8.0 0.00 0.00 0.00 47 1020.2
20260503181516 62 348 6.0 10.0 0.00 0.00 0.00 48 1020.0
20260503174531 63 355 7.0 11.0 0.00 0.00 0.00 47 1020.1
20260503173013 64 340 7.0 13.0 0.00 0.00 0.00 47 1019.8
20260503171549 64 339 8.0 13.0 0.00 0.00 0.00 45 1019.8
20260503081551 64 307 11.0 19.0 0.00 0.00 0.00 45 1021.3
20260503071522 61 6 11.0 20.0 0.00 0.00 0.00 51 1021.2
20260503054508 55 273 10.0 19.0 0.00 0.00 0.00 61 1021.1
20260503053046 53 261 9.0 15.0 0.00 0.00 0.00 62 1021.0
20260503051522 52 314 10.0 15.0 0.00 0.00 0.00 63 1021.0
20260503050100 52 331 12.0 19.0 0.00 0.00 0.00 61 1020.9
20260503050002 52 324 12.0 19.0 0.00 0.00 0.00 61 1020.9
20260503044543 51 295 13.0 20.0 0.00 0.00 0.00 62 1020.8
20260503043016 50 286 12.0 16.0 0.00 0.00 0.00 64 1020.9
20260503041554 50 295 9.0 15.0 0.00 0.00 0.00 64 1020.9
20260503040030 49 261 10.0 15.0 0.00 0.00 0.00 65 1020.9
20260503034510 49 274 9.0 17.0 0.00 0.00 0.00 65 1020.9
20260503033044 49 326 10.0 17.0 0.00 0.00 0.00 66 1020.8
20260503031524 48 289 10.0 17.0 0.00 0.00 0.00 67 1020.9
20260503030058 48 298 11.0 18.0 0.00 0.00 0.00 67 1021.0
20260503030007 48 282 11.0 18.0 0.00 0.00 0.00 67 1021.0
20260503024537 48 314 10.0 14.0 0.00 0.00 0.00 67 1021.0
20260503023018 49 313 8.0 13.0 0.00 0.00 0.00 66 1021.2
20260503021543 49 332 8.0 13.0 0.00 0.00 0.00 66 1021.3
20260503020024 48 271 8.0 12.0 0.00 0.00 0.00 67 1021.4
20260503014610 48 273 8.0 13.0 0.00 0.00 0.00 68 1021.5
20260503013038 47 273 9.0 13.0 0.00 0.00 0.00 69 1021.5
20260503011514 47 238 9.0 14.0 0.00 0.00 0.00 70 1021.8
20260503010051 47 275 9.0 14.0 0.00 0.00 0.00 70 1021.8
20260503004533 46 323 10.0 14.0 0.00 0.00 0.00 71 1022.0
20260503003007 47 270 11.0 18.0 0.00 0.00 0.00 71 1022.1
20260503001556 46 329 9.0 14.0 0.00 0.00 0.00 73 1022.0
20260503000021 47 264 10.0 15.0 0.00 0.00 0.00 73 1022.4
20260502234559 48 265 9.0 15.0 0.00 0.00 0.00 71 1022.6
20260502234501 48 294 9.0 15.0 0.00 0.00 0.00 71 1022.7
20260502233034 48 282 9.0 13.0 0.00 0.00 0.00 72 1022.8
20260502231517 48 271 7.0 11.0 0.00 0.00 0.00 72 1023.1
20260502230049 47 271 7.0 11.0 0.00 0.02 0.00 73 1023.5
20260502224529 49 334 7.0 12.0 0.00 0.02 0.00 68 1023.6
20260502223014 50 272 7.0 12.0 0.00 0.02 0.00 65 1023.6
20260502221547 51 291 7.0 11.0 0.00 0.02 0.00 62 1023.7
20260502220020 52 306 8.0 13.0 0.00 0.02 0.00 60 1023.8
20260502214545 52 294 7.0 14.0 0.00 0.02 0.00 62 1023.7
20260502213019 51 301 10.0 17.0 0.00 0.02 0.00 65 1024.0